,,Stat6,,Stat2,,Stat8,,Stat9,,Stat10,,Wind1,,Wind1,
time,status,PA1M_AVG,status,PR1M_SUM,status,RH1M_AVG,status,SR1M_AVG,status,TA1M_AVG,status,W1dAve1m,status,W1sAve1m,
2008-05-24, 00:00:00,VALID,916.43,VALID,0,VALID,100,VALID,0,VALID,20.2347,VALID,137,VALID,0.626817,
2008-05-24, 00:01:00,VALID,916.402,VALID,0,VALID,100,VALID,-0.0339617,VALID,20.2409,VALID,144,VALID,0.509233,
2008-05-24, 00:02:00,VALID,916.364,VALID,0,VALID,100,VALID,-0.0169808,VALID,20.2509,VALID,144,VALID,0,
2008-05-24, 00:03:00,VALID,916.316,VALID,0,VALID,100,VALID,0.0169808,VALID,20.2634,VALID,144,VALID,0,
2008-05-24, 00:04:01,VALID,916.287,VALID,0,VALID,100,VALID,-0.0169808,VALID,20.2769,VALID,150,VALID,0.213542,
2008-05-24, 00:05:00,VALID,916.261,VALID,0,VALID,100,VALID,0.0169808,VALID,20.2894,VALID,158,VALID,0.772049,
2008-05-24, 00:06:01,VALID,916.238,VALID,0,VALID,100,VALID,0.0169808,VALID,20.2921,VALID,153,VALID,0.658249,
2008-05-24, 00:07:00,VALID,916.255,VALID,0,VALID,100,VALID,0,VALID,20.2953,VALID,136,VALID,0,
2008-05-24, 00:08:00,VALID,916.263,VALID,0,VALID,100,VALID,-0.0169808,VALID,20.2961,VALID,133,VALID,0,
2008-05-24, 00:09:00,VALID,916.282,VALID,0,VALID,100,VALID,-0.0339617,VALID,20.2961,VALID,136,VALID,0.0674055,
2008-05-24, 00:10:01,VALID,916.295,VALID,0,VALID,100,VALID,-0.0509425,VALID,20.2901,VALID,149,VALID,0.720881,
2008-05-24, 00:11:00,VALID,916.31,VALID,0,VALID,100,VALID,-0.0509425,VALID,20.2931,VALID,145,VALID,0.103277,
2008-05-24, 00:12:01,VALID,916.335,VALID,0,VALID,100,VALID,-0.0339617,VALID,20.2764,VALID,148,VALID,0.137355,
2008-05-24, 00:13:00,VALID,916.327,VALID,0,VALID,100,VALID,-0.0169808,VALID,20.2931,VALID,148,VALID,0.00572917,
2008-05-24, 00:14:01,VALID,916.321,VALID,0,VALID,100,VALID,-0.0679233,VALID,20.2934,VALID,154,VALID,0.00223214,
2008-05-24, 00:15:00,VALID,916.294,VALID,0,VALID,100,VALID,-0.101885,VALID,20.2799,VALID,158,VALID,0,
2008-05-24, 00:16:01,VALID,916.282,VALID,0,VALID,100,VALID,-0.0679233,VALID,20.2869,VALID,156,VALID,0,
2008-05-24, 00:17:00,VALID,916.255,VALID,0,VALID,100,VALID,-0.0849042,VALID,20.2806,VALID,155,VALID,0,
2008-05-24, 00:18:01,VALID,916.225,VALID,0,VALID,100,VALID,-0.0849042,VALID,20.2639,VALID,155,VALID,0,
2008-05-24, 00:19:01,VALID,916.204,VALID,0,VALID,100,VALID,-0.0849042,VALID,20.2644,VALID,155,VALID,0,
2008-05-24, 00:20:00,VALID,916.197,VALID,0,VALID,100,VALID,-0.0849042,VALID,20.2542,VALID,170,VALID,0,
2008-05-24, 00:21:00,VALID,916.174,VALID,0,VALID,100,VALID,-0.0849042,VALID,20.2282,VALID,174,VALID,0,
2008-05-24, 00:22:01,VALID,916.165,VALID,0,VALID,100,VALID,-0.0849042,VALID,20.2315,VALID,174,VALID,0,
2008-05-24, 00:23:00,VALID,916.153,VALID,0,VALID,100,VALID,0.0169808,VALID,20.2077,VALID,176,VALID,0,
2008-05-24, 00:24:00,VALID,916.163,VALID,0,VALID,100,VALID,0,VALID,20.1945,VALID,178,VALID,0,
2008-05-24, 00:25:01,VALID,916.149,VALID,0,VALID,100,VALID,0.0339617,VALID,20.1907,VALID,178,VALID,0,
2008-05-24, 00:26:01,VALID,916.156,VALID,0,VALID,100,VALID,0.0169808,VALID,20.191,VALID,178,VALID,0.106585,
2008-05-24, 00:27:01,VALID,916.151,VALID,0,VALID,100,VALID,0,VALID,20.1975,VALID,178,VALID,0.0200076,
2008-05-24, 00:28:01,VALID,916.134,VALID,0,VALID,100,VALID,0.0339617,VALID,20.1812,VALID,178,VALID,0.0323933,
2008-05-24, 00:29:01,VALID,916.129,VALID,0,VALID,100,VALID,0.0169808,VALID,20.1847,VALID,178,VALID,0,
2008-05-24, 00:30:01,VALID,916.118,VALID,0,VALID,100,VALID,0.0339617,VALID,20.1488,VALID,178,VALID,0,
2008-05-24, 00:31:01,VALID,916.107,VALID,0,VALID,100,VALID,0.0679233,VALID,20.1034,VALID,178,VALID,0,
2008-05-24, 00:32:01,VALID,916.102,VALID,0,VALID,100,VALID,0.0169808,VALID,20.1069,VALID,178,VALID,0,
2008-05-24, 00:33:01,VALID,916.108,VALID,0,VALID,100,VALID,0.0339617,VALID,20.1101,VALID,178,VALID,0,
2008-05-24, 00:34:01,VALID,916.098,VALID,0,VALID,100,VALID,0.0169808,VALID,20.0515,VALID,178,VALID,0,
2008-05-24, 00:35:00,VALID,916.085,VALID,0,VALID,100,VALID,0.0169808,VALID,19.9609,VALID,178,VALID,0,
2008-05-24, 00:36:00,VALID,916.089,VALID,0,VALID,100,VALID,0,VALID,19.889,VALID,178,VALID,0,
2008-05-24, 00:37:00,VALID,916.099,VALID,0,VALID,100,VALID,0.0339617,VALID,19.8144,VALID,178,VALID,0,
2008-05-24, 00:38:00,VALID,916.086,VALID,0,VALID,100,VALID,0,VALID,19.7342,VALID,178,VALID,0,
2008-05-24, 00:39:00,VALID,916.09,VALID,0,VALID,100,VALID,-0.0679233,VALID,19.7123,VALID,178,VALID,0,
2008-05-24, 00:40:00,VALID,916.091,VALID,0,VALID,100,VALID,-0.0509425,VALID,19.6798,VALID,178,VALID,0,
2008-05-24, 00:41:00,VALID,916.092,VALID,0,VALID,100,VALID,-0.0509425,VALID,19.6733,VALID,178,VALID,0,
2008-05-24, 00:42:00,VALID,916.105,VALID,0,VALID,100,VALID,-0.0849042,VALID,19.7025,VALID,178,VALID,0,
2008-05-24, 00:43:00,VALID,916.095,VALID,0,VALID,100,VALID,-0.0679233,VALID,19.7907,VALID,178,VALID,0,
2008-05-24, 00:44:00,VALID,916.099,VALID,0,VALID,100,VALID,-0.101885,VALID,19.8815,VALID,124,VALID,0,
2008-05-24, 00:45:00,VALID,916.089,VALID,0,VALID,100,VALID,-0.101885,VALID,19.9686,VALID,106,VALID,0.0191592,
2008-05-24, 00:46:00,VALID,916.079,VALID,0,VALID,100,VALID,-0.101885,VALID,20.0238,VALID,106,VALID,0.955448,
2008-05-24, 00:47:00,VALID,916.069,VALID,0,VALID,100,VALID,-0.101885,VALID,20.0335,VALID,106,VALID,0.890997,
2008-05-24, 00:48:00,VALID,916.067,VALID,0,VALID,100,VALID,-0.118866,VALID,20.0173,VALID,106,VALID,0.94436,
2008-05-24, 00:49:00,VALID,916.066,VALID,0,VALID,100,VALID,-0.101885,VALID,20.0043,VALID,105,VALID,1.06215,
2008-05-24, 00:50:00,VALID,916.07,VALID,0,VALID,100,VALID,-0.0849042,VALID,19.9886,VALID,101,VALID,0.911585,
2008-05-24, 00:51:00,VALID,916.056,VALID,0,VALID,100,VALID,-0.101885,VALID,19.9394,VALID,97,VALID,0.779119,
2008-05-24, 00:52:00,VALID,916.064,VALID,0,VALID,100,VALID,-0.101885,VALID,19.8778,VALID,90,VALID,0.760719,
2008-05-24, 00:53:00,VALID,916.065,VALID,0,VALID,100,VALID,-0.101885,VALID,19.7966,VALID,85,VALID,0.734557,
2008-05-24, 00:54:00,VALID,916.066,VALID,0,VALID,100,VALID,-0.0849042,VALID,19.7515,VALID,81,VALID,0.765816,
2008-05-24, 00:55:00,VALID,916.059,VALID,0,VALID,100,VALID,-0.0509425,VALID,19.709,VALID,83,VALID,0.739025,
2008-05-24, 00:56:00,VALID,916.063,VALID,0,VALID,100,VALID,-0.0849042,VALID,19.7028,VALID,91,VALID,0.857887,
2008-05-24, 00:57:00,VALID,916.04,VALID,0,VALID,100,VALID,-0.0849042,VALID,19.6773,VALID,94,VALID,0.403516,
2008-05-24, 00:58:00,VALID,916.018,VALID,0,VALID,100,VALID,-0.0849042,VALID,19.6247,VALID,95,VALID,0.106827,
2008-05-24, 00:59:00,VALID,915.996,VALID,0,VALID,100,VALID,-0.101885,VALID,19.6249,VALID,98,VALID,0.193924,
2008-05-24, 01:00:00,VALID,915.977,VALID,0,VALID,100,VALID,-0.118866,VALID,19.6254,VALID,90,VALID,0,
2008-05-24, 01:01:00,VALID,915.978,VALID,0,VALID,100,VALID,-0.0849042,VALID,19.6052,VALID,68,VALID,0,
2008-05-24, 01:02:00,VALID,915.958,VALID,0,VALID,100,VALID,-0.0849042,VALID,19.5725,VALID,59,VALID,0.205357,
2008-05-24, 01:03:00,VALID,915.973,VALID,0,VALID,100,VALID,-0.101885,VALID,19.5633,VALID,58,VALID,0,
2008-05-24, 01:04:00,VALID,915.967,VALID,0,VALID,100,VALID,-0.0849042,VALID,19.5533,VALID,58,VALID,0,
2008-05-24, 01:05:00,VALID,915.965,VALID,0,VALID,100,VALID,-0.0849042,VALID,19.563,VALID,58,VALID,0,
2008-05-24, 01:06:00,VALID,915.973,VALID,0,VALID,100,VALID,-0.0849042,VALID,19.5695,VALID,58,VALID,0,
2008-05-24, 01:07:00,VALID,915.987,VALID,0,VALID,100,VALID,-0.0679233,VALID,19.5728,VALID,58,VALID,0,
2008-05-24, 01:08:00,VALID,915.999,VALID,0,VALID,100,VALID,-0.0509425,VALID,19.5663,VALID,58,VALID,0.161966,
2008-05-24, 01:09:00,VALID,916.011,VALID,0,VALID,100,VALID,0,VALID,19.576,VALID,58,VALID,0.701308,
2008-05-24, 01:10:00,VALID,916.003,VALID,0,VALID,100,VALID,-0.0679233,VALID,19.602,VALID,58,VALID,0.93843,
2008-05-24, 01:11:00,VALID,915.992,VALID,0,VALID,100,VALID,-0.0339617,VALID,19.6412,VALID,58,VALID,0.984012,
2008-05-24, 01:12:00,VALID,915.987,VALID,0,VALID,100,VALID,-0.0339617,VALID,19.6409,VALID,60,VALID,0.892299,
2008-05-24, 01:13:00,VALID,915.972,VALID,0,VALID,100,VALID,-0.0339617,VALID,19.6369,VALID,65,VALID,0.62064,
2008-05-24, 01:14:00,VALID,915.959,VALID,0,VALID,100,VALID,0,VALID,19.6599,VALID,65,VALID,0.447798,
2008-05-24, 01:15:00,VALID,915.944,VALID,0,VALID,100,VALID,-0.0339617,VALID,19.6866,VALID,65,VALID,0.140234,
2008-05-24, 01:16:00,VALID,915.918,VALID,0,VALID,100,VALID,-0.0339617,VALID,19.6766,VALID,65,VALID,0,
2008-05-24, 01:17:00,VALID,915.887,VALID,0,VALID,100,VALID,-0.0339617,VALID,19.6796,VALID,65,VALID,0,
2008-05-24, 01:18:00,VALID,915.861,VALID,0,VALID,100,VALID,-0.0509425,VALID,19.6931,VALID,65,VALID,0,
2008-05-24, 01:19:00,VALID,915.854,VALID,0,VALID,100,VALID,-0.0169808,VALID,19.6701,VALID,65,VALID,0,
2008-05-24, 01:20:00,VALID,915.832,VALID,0,VALID,100,VALID,-0.0339617,VALID,19.6444,VALID,65,VALID,0.145531,
2008-05-24, 01:21:00,VALID,915.825,VALID,0,VALID,100,VALID,-0.0169808,VALID,19.6147,VALID,83,VALID,0.383594,
2008-05-24, 01:22:00,VALID,915.822,VALID,0,VALID,100,VALID,-0.0509425,VALID,19.6117,VALID,83,VALID,0.425391,
2008-05-24, 01:23:00,VALID,915.827,VALID,0,VALID,100,VALID,-0.0339617,VALID,19.6312,VALID,83,VALID,0.377778,
2008-05-24, 01:24:00,VALID,915.837,VALID,0,VALID,100,VALID,-0.0509425,VALID,19.6766,VALID,83,VALID,0.451853,
2008-05-24, 01:25:00,VALID,915.87,VALID,0,VALID,100,VALID,-0.0169808,VALID,19.728,VALID,83,VALID,0.223958,
2008-05-24, 01:26:00,VALID,915.886,VALID,0,VALID,100,VALID,-0.0339617,VALID,19.7739,VALID,83,VALID,0,
2008-05-24, 01:27:00,VALID,915.897,VALID,0,VALID,100,VALID,-0.0339617,VALID,19.8031,VALID,83,VALID,0,
2008-05-24, 01:28:00,VALID,915.904,VALID,0,VALID,100,VALID,-0.0509425,VALID,19.7869,VALID,83,VALID,0,
2008-05-24, 01:29:00,VALID,915.902,VALID,0,VALID,100,VALID,-0.0509425,VALID,19.7093,VALID,83,VALID,0,
2008-05-24, 01:30:00,VALID,915.914,VALID,0,VALID,100,VALID,-0.0339617,VALID,19.6733,VALID,83,VALID,0,
2008-05-24, 01:31:00,VALID,915.903,VALID,0,VALID,100,VALID,-0.0339617,VALID,19.6344,VALID,83,VALID,0,
2008-05-24, 01:32:00,VALID,915.904,VALID,0,VALID,100,VALID,-0.0339617,VALID,19.5887,VALID,83,VALID,0,
2008-05-24, 01:33:00,VALID,915.882,VALID,0,VALID,100,VALID,-0.0339617,VALID,19.5044,VALID,83,VALID,0,
2008-05-24, 01:34:00,VALID,915.848,VALID,0,VALID,100,VALID,-0.0169808,VALID,19.4884,VALID,83,VALID,0,
2008-05-24, 01:35:00,VALID,915.807,VALID,0,VALID,100,VALID,0,VALID,19.563,VALID,83,VALID,0,
2008-05-24, 01:36:00,VALID,915.779,VALID,0,VALID,100,VALID,-0.0339617,VALID,19.6569,VALID,83,VALID,0,
2008-05-24, 01:37:00,VALID,915.729,VALID,0,VALID,100,VALID,-0.0679233,VALID,19.7512,VALID,83,VALID,0,
2008-05-24, 01:38:00,VALID,915.69,VALID,0,VALID,100,VALID,-0.0679233,VALID,19.7904,VALID,83,VALID,0,
2008-05-24, 01:39:00,VALID,915.654,VALID,0,VALID,100,VALID,-0.0849042,VALID,19.8164,VALID,83,VALID,0,
2008-05-24, 01:40:00,VALID,915.625,VALID,0,VALID,100,VALID,-0.0849042,VALID,19.8261,VALID,83,VALID,0,
2008-05-24, 01:41:00,VALID,915.604,VALID,0,VALID,100,VALID,-0.0169808,VALID,19.8423,VALID,83,VALID,0,
2008-05-24, 01:42:00,VALID,915.587,VALID,0,VALID,100,VALID,-0.0679233,VALID,19.8323,VALID,83,VALID,0,
2008-05-24, 01:43:00,VALID,915.558,VALID,0,VALID,100,VALID,-0.0849042,VALID,19.8261,VALID,83,VALID,0,
2008-05-24, 01:44:00,VALID,915.549,VALID,0,VALID,100,VALID,-0.0339617,VALID,19.7318,VALID,83,VALID,0,
2008-05-24, 01:45:00,VALID,915.535,VALID,0,VALID,100,VALID,-0.0509425,VALID,19.7123,VALID,76,VALID,0,
2008-05-24, 01:46:00,VALID,915.529,VALID,0,VALID,100,VALID,-0.0849042,VALID,19.7387,VALID,76,VALID,0,
2008-05-24, 01:47:00,VALID,915.539,VALID,0,VALID,100,VALID,-0.0679233,VALID,19.7223,VALID,76,VALID,0,
2008-05-24, 01:48:00,VALID,915.538,VALID,0,VALID,100,VALID,-0.101885,VALID,19.7095,VALID,76,VALID,0,
2008-05-24, 01:49:00,VALID,915.532,VALID,0,VALID,100,VALID,-0.0849042,VALID,19.713,VALID,76,VALID,0,
2008-05-24, 01:50:00,VALID,915.532,VALID,0,VALID,100,VALID,-0.0849042,VALID,19.7355,VALID,76,VALID,0,
2008-05-24, 01:51:00,VALID,915.537,VALID,0,VALID,100,VALID,-0.0169808,VALID,19.7515,VALID,76,VALID,0,
2008-05-24, 01:52:00,VALID,915.511,VALID,0,VALID,100,VALID,-0.0509425,VALID,19.7677,VALID,76,VALID,0,
2008-05-24, 01:53:00,VALID,915.49,VALID,0,VALID,100,VALID,-0.101885,VALID,19.7807,VALID,76,VALID,0,
2008-05-24, 01:54:00,VALID,915.489,VALID,0,VALID,100,VALID,-0.0509425,VALID,19.7902,VALID,76,VALID,0,
2008-05-24, 01:55:00,VALID,915.474,VALID,0,VALID,100,VALID,-0.101885,VALID,19.7966,VALID,76,VALID,0,
2008-05-24, 01:56:00,VALID,915.467,VALID,0,VALID,100,VALID,-0.0849042,VALID,19.8261,VALID,76,VALID,0,
2008-05-24, 01:57:00,VALID,915.462,VALID,0,VALID,100,VALID,-0.101885,VALID,19.8553,VALID,76,VALID,0,
2008-05-24, 01:58:00,VALID,915.449,VALID,0,VALID,100,VALID,-0.0339617,VALID,19.8713,VALID,76,VALID,0,
2008-05-24, 01:59:00,VALID,915.43,VALID,0,VALID,100,VALID,-0.0169808,VALID,19.8872,VALID,76,VALID,0,
2008-05-24, 02:00:00,VALID,915.411,VALID,0,VALID,100,VALID,0,VALID,19.9,VALID,76,VALID,0,
2008-05-24, 02:01:00,VALID,915.391,VALID,0,VALID,100,VALID,-0.0169808,VALID,19.9202,VALID,76,VALID,0,
2008-05-24, 02:02:00,VALID,915.372,VALID,0,VALID,100,VALID,-0.0339617,VALID,19.9364,VALID,76,VALID,0,
2008-05-24, 02:03:00,VALID,915.371,VALID,0,VALID,100,VALID,-0.0169808,VALID,19.9491,VALID,76,VALID,0,
2008-05-24, 02:04:00,VALID,915.35,VALID,0,VALID,100,VALID,-0.0339617,VALID,19.9621,VALID,76,VALID,0,
2008-05-24, 02:05:00,VALID,915.343,VALID,0,VALID,100,VALID,-0.0339617,VALID,19.9751,VALID,76,VALID,0,
2008-05-24, 02:06:00,VALID,915.344,VALID,0,VALID,100,VALID,-0.0169808,VALID,19.9751,VALID,76,VALID,0,
2008-05-24, 02:07:00,VALID,915.344,VALID,0,VALID,100,VALID,-0.0339617,VALID,19.9684,VALID,76,VALID,0,
2008-05-24, 02:08:00,VALID,915.348,VALID,0,VALID,100,VALID,-0.0169808,VALID,19.9684,VALID,75,VALID,0,
2008-05-24, 02:09:00,VALID,915.346,VALID,0,VALID,100,VALID,-0.0339617,VALID,19.9751,VALID,75,VALID,0,
2008-05-24, 02:10:00,VALID,915.332,VALID,0,VALID,100,VALID,-0.0339617,VALID,19.9751,VALID,75,VALID,0,
2008-05-24, 02:11:00,VALID,915.317,VALID,0,VALID,100,VALID,-0.0169808,VALID,19.9751,VALID,75,VALID,0,
2008-05-24, 02:12:00,VALID,915.329,VALID,0,VALID,100,VALID,0,VALID,19.9751,VALID,75,VALID,0,
2008-05-24, 02:13:00,VALID,915.313,VALID,0,VALID,100,VALID,-0.0679233,VALID,19.9783,VALID,75,VALID,0,
2008-05-24, 02:14:00,VALID,915.291,VALID,0,VALID,100,VALID,-0.0169808,VALID,19.9551,VALID,92,VALID,0,
2008-05-24, 02:15:00,VALID,915.281,VALID,0,VALID,100,VALID,-0.0169808,VALID,19.9294,VALID,159,VALID,0,
2008-05-24, 02:16:00,VALID,915.244,VALID,0,VALID,100,VALID,-0.0169808,VALID,19.91,VALID,170,VALID,0,
2008-05-24, 02:17:00,VALID,915.236,VALID,0,VALID,100,VALID,-0.0169808,VALID,19.9102,VALID,170,VALID,0,
2008-05-24, 02:18:00,VALID,915.227,VALID,0,VALID,100,VALID,-0.0509425,VALID,19.904,VALID,170,VALID,0,
2008-05-24, 02:19:00,VALID,915.211,VALID,0,VALID,100,VALID,-0.0509425,VALID,19.8975,VALID,170,VALID,0,
2008-05-24, 02:20:00,VALID,915.196,VALID,0,VALID,100,VALID,-0.0849042,VALID,19.878,VALID,170,VALID,0,
2008-05-24, 02:21:00,VALID,915.185,VALID,0,VALID,100,VALID,-0.0169808,VALID,19.8748,VALID,170,VALID,0,
2008-05-24, 02:22:00,VALID,915.173,VALID,0,VALID,100,VALID,-0.0339617,VALID,19.8486,VALID,170,VALID,0,
2008-05-24, 02:23:00,VALID,915.156,VALID,0,VALID,100,VALID,-0.0849042,VALID,19.8161,VALID,170,VALID,0,
2008-05-24, 02:24:00,VALID,915.135,VALID,0,VALID,100,VALID,-0.0509425,VALID,19.7931,VALID,170,VALID,0,
2008-05-24, 02:25:00,VALID,915.141,VALID,0,VALID,100,VALID,-0.0339617,VALID,19.7872,VALID,170,VALID,0.0669922,
2008-05-24, 02:26:00,VALID,915.122,VALID,0,VALID,100,VALID,-0.0679233,VALID,19.7934,VALID,170,VALID,0.365699,
2008-05-24, 02:27:00,VALID,915.107,VALID,0,VALID,100,VALID,0,VALID,19.7999,VALID,170,VALID,0.60992,
2008-05-24, 02:28:00,VALID,915.084,VALID,0,VALID,100,VALID,-0.0339617,VALID,19.7999,VALID,170,VALID,0.526296,
2008-05-24, 02:29:00,VALID,915.055,VALID,0,VALID,100,VALID,-0.0509425,VALID,19.7934,VALID,147,VALID,0.540128,
2008-05-24, 02:30:00,VALID,915.014,VALID,0,VALID,100,VALID,-0.0849042,VALID,19.7869,VALID,110,VALID,0.352834,
2008-05-24, 02:31:00,VALID,914.987,VALID,0,VALID,100,VALID,-0.0339617,VALID,19.7867,VALID,120,VALID,0.688388,
2008-05-24, 02:32:00,VALID,914.964,VALID,0,VALID,100,VALID,0,VALID,19.7934,VALID,133,VALID,0.675681,
2008-05-24, 02:33:00,VALID,914.952,VALID,0,VALID,100,VALID,0,VALID,19.7867,VALID,119,VALID,0.0960366,
2008-05-24, 02:34:00,VALID,914.943,VALID,0,VALID,100,VALID,-0.0509425,VALID,19.7642,VALID,123,VALID,0.000181686,
2008-05-24, 02:35:00,VALID,914.933,VALID,0,VALID,100,VALID,0,VALID,19.7542,VALID,110,VALID,0.139881,
2008-05-24, 02:36:00,VALID,914.92,VALID,0,VALID,100,VALID,-0.0339617,VALID,19.735,VALID,110,VALID,0,
2008-05-24, 02:37:00,VALID,914.901,VALID,0,VALID,100,VALID,-0.0169808,VALID,19.725,VALID,110,VALID,0,
2008-05-24, 02:38:00,VALID,914.901,VALID,0,VALID,100,VALID,-0.0339617,VALID,19.7058,VALID,110,VALID,0,
2008-05-24, 02:39:00,VALID,914.886,VALID,0,VALID,100,VALID,-0.0339617,VALID,19.6828,VALID,123,VALID,0,
2008-05-24, 02:40:00,VALID,914.87,VALID,0,VALID,100,VALID,-0.0169808,VALID,19.6766,VALID,134,VALID,0,
2008-05-24, 02:41:00,VALID,914.849,VALID,0,VALID,100,VALID,-0.0339617,VALID,19.6798,VALID,148,VALID,0,
2008-05-24, 02:42:00,VALID,914.836,VALID,0,VALID,100,VALID,-0.0509425,VALID,19.6669,VALID,159,VALID,0.539444,
2008-05-24, 02:43:00,VALID,914.844,VALID,0,VALID,100,VALID,-0.0339617,VALID,19.6768,VALID,163,VALID,1.18638,
2008-05-24, 02:44:00,VALID,914.836,VALID,0,VALID,100,VALID,-0.0509425,VALID,19.6926,VALID,160,VALID,0.928571,
2008-05-24, 02:45:00,VALID,914.837,VALID,0,VALID,100,VALID,-0.0339617,VALID,19.6926,VALID,154,VALID,0.718568,
2008-05-24, 02:46:00,VALID,914.854,VALID,0,VALID,100,VALID,-0.0169808,VALID,19.6891,VALID,153,VALID,0.805069,
2008-05-24, 02:47:00,VALID,914.856,VALID,0,VALID,100,VALID,-0.0169808,VALID,19.6928,VALID,150,VALID,0.63058,
2008-05-24, 02:48:00,VALID,914.857,VALID,0,VALID,100,VALID,-0.0169808,VALID,19.6928,VALID,138,VALID,0.392912,
2008-05-24, 02:49:00,VALID,914.841,VALID,0,VALID,100,VALID,-0.0509425,VALID,19.6926,VALID,155,VALID,0.363095,
2008-05-24, 02:50:00,VALID,914.856,VALID,0,VALID,100,VALID,-0.0169808,VALID,19.6926,VALID,155,VALID,0.815163,
2008-05-24, 02:51:00,VALID,914.844,VALID,0,VALID,100,VALID,0,VALID,19.6958,VALID,153,VALID,0.473011,
2008-05-24, 02:52:00,VALID,914.847,VALID,0,VALID,100,VALID,-0.0169808,VALID,19.6893,VALID,130,VALID,0.654474,
2008-05-24, 02:53:00,VALID,914.855,VALID,0,VALID,100,VALID,0,VALID,19.6761,VALID,115,VALID,0.764027,
2008-05-24, 02:54:00,VALID,914.85,VALID,0,VALID,100,VALID,-0.0339617,VALID,19.6766,VALID,119,VALID,0.706522,
2008-05-24, 02:55:00,VALID,914.857,VALID,0,VALID,100,VALID,-0.0509425,VALID,19.6704,VALID,109,VALID,0.593555,
2008-05-24, 02:56:00,VALID,914.85,VALID,0,VALID,100,VALID,-0.0169808,VALID,19.6604,VALID,111,VALID,0.512305,
2008-05-24, 02:57:00,VALID,914.838,VALID,0,VALID,100,VALID,-0.0509425,VALID,19.6574,VALID,113,VALID,0.317921,
2008-05-24, 02:58:00,VALID,914.83,VALID,0,VALID,100,VALID,-0.0339617,VALID,19.6509,VALID,102,VALID,0.601744,
2008-05-24, 02:59:00,VALID,914.847,VALID,0,VALID,100,VALID,-0.0339617,VALID,19.6441,VALID,121,VALID,0.876302,
2008-05-24, 03:00:00,VALID,914.839,VALID,0,VALID,100,VALID,-0.0509425,VALID,19.6247,VALID,130,VALID,0.794667,
2008-05-24, 03:01:00,VALID,914.841,VALID,0,VALID,100,VALID,-0.0509425,VALID,19.602,VALID,138,VALID,0.685369,
2008-05-24, 03:02:00,VALID,914.837,VALID,0,VALID,100,VALID,-0.0339617,VALID,19.6052,VALID,143,VALID,0.971912,
2008-05-24, 03:03:00,VALID,914.835,VALID,0,VALID,100,VALID,-0.0169808,VALID,19.5955,VALID,159,VALID,0.792969,
2008-05-24, 03:04:00,VALID,914.829,VALID,0,VALID,100,VALID,0,VALID,19.5825,VALID,157,VALID,1.08594,
2008-05-24, 03:05:00,VALID,914.836,VALID,0,VALID,100,VALID,-0.0339617,VALID,19.5793,VALID,166,VALID,0.792969,
2008-05-24, 03:06:00,VALID,914.818,VALID,0,VALID,100,VALID,-0.0169808,VALID,19.589,VALID,158,VALID,1.45941,
2008-05-24, 03:07:00,VALID,914.809,VALID,0,VALID,100,VALID,-0.0339617,VALID,19.6149,VALID,165,VALID,1.13047,
2008-05-24, 03:08:00,VALID,914.78,VALID,0,VALID,100,VALID,0.0169808,VALID,19.6332,VALID,175,VALID,1.31548,
2008-05-24, 03:09:00,VALID,914.761,VALID,0,VALID,100,VALID,0.0849042,VALID,19.6424,VALID,180,VALID,0.835938,
2008-05-24, 03:10:00,VALID,914.749,VALID,0,VALID,100,VALID,0.0339617,VALID,19.6394,VALID,173,VALID,1.01935,
2008-05-24, 03:11:00,VALID,914.739,VALID,0,VALID,100,VALID,0.0849042,VALID,19.6394,VALID,168,VALID,1.29111,
2008-05-24, 03:12:00,VALID,914.734,VALID,0,VALID,100,VALID,0.0679233,VALID,19.6524,VALID,169,VALID,0.955556,
2008-05-24, 03:13:00,VALID,914.749,VALID,0,VALID,100,VALID,0.0849042,VALID,19.6621,VALID,167,VALID,1.12271,
2008-05-24, 03:14:00,VALID,914.749,VALID,0,VALID,100,VALID,0.0339617,VALID,19.6524,VALID,161,VALID,0.992969,
2008-05-24, 03:15:00,VALID,914.749,VALID,0,VALID,100,VALID,0.0849042,VALID,19.6362,VALID,164,VALID,0.753162,
2008-05-24, 03:16:00,VALID,914.722,VALID,0,VALID,100,VALID,0.0679233,VALID,19.6262,VALID,171,VALID,0.572173,
2008-05-24, 03:17:00,VALID,914.722,VALID,0,VALID,100,VALID,0.101885,VALID,19.6097,VALID,167,VALID,0.0288881,
2008-05-24, 03:18:00,VALID,914.699,VALID,0,VALID,100,VALID,0.101885,VALID,19.607,VALID,169,VALID,0.00171494,
2008-05-24, 03:19:00,VALID,914.701,VALID,0,VALID,100,VALID,0.101885,VALID,19.597,VALID,153,VALID,0.145241,
2008-05-24, 03:20:00,VALID,914.674,VALID,0,VALID,100,VALID,0.101885,VALID,19.587,VALID,165,VALID,0.103198,
2008-05-24, 03:21:00,VALID,914.669,VALID,0,VALID,100,VALID,0.0849042,VALID,19.5641,VALID,168,VALID,0.264881,
2008-05-24, 03:22:00,VALID,914.662,VALID,0,VALID,100,VALID,0.101885,VALID,19.5416,VALID,163,VALID,0,
2008-05-24, 03:23:00,VALID,914.638,VALID,0,VALID,100,VALID,-0.0169808,VALID,19.5234,VALID,167,VALID,0,
2008-05-24, 03:24:00,VALID,914.642,VALID,0,VALID,100,VALID,-0.0169808,VALID,19.5144,VALID,152,VALID,0,
2008-05-24, 03:25:00,VALID,914.637,VALID,0,VALID,100,VALID,-0.0849042,VALID,19.5241,VALID,162,VALID,1.02096,
2008-05-24, 03:26:00,VALID,914.623,VALID,0,VALID,100,VALID,-0.0339617,VALID,19.5628,VALID,165,VALID,0.856001,
2008-05-24, 03:27:00,VALID,914.642,VALID,0,VALID,100,VALID,0,VALID,19.5857,VALID,175,VALID,0.884811,
2008-05-24, 03:28:00,VALID,914.635,VALID,0,VALID,100,VALID,-0.0169808,VALID,19.5952,VALID,174,VALID,0.870028,
2008-05-24, 03:29:00,VALID,914.639,VALID,0,VALID,100,VALID,0,VALID,19.5882,VALID,161,VALID,0.690848,
2008-05-24, 03:30:00,VALID,914.634,VALID,0,VALID,100,VALID,-0.0169808,VALID,19.6015,VALID,182,VALID,0.490799,
2008-05-24, 03:31:00,VALID,914.652,VALID,0,VALID,100,VALID,0,VALID,19.601,VALID,157,VALID,0.581143,
2008-05-24, 03:32:00,VALID,914.643,VALID,0,VALID,100,VALID,-0.0169808,VALID,19.6214,VALID,160,VALID,1.03906,
2008-05-24, 03:33:00,VALID,914.635,VALID,0,VALID,100,VALID,-0.0169808,VALID,19.6279,VALID,149,VALID,0.652734,
2008-05-24, 03:34:00,VALID,914.634,VALID,0,VALID,100,VALID,-0.0509425,VALID,19.6017,VALID,166,VALID,0.287946,
2008-05-24, 03:35:00,VALID,914.634,VALID,0,VALID,100,VALID,0.0509425,VALID,19.5912,VALID,161,VALID,0.375558,
2008-05-24, 03:36:00,VALID,914.626,VALID,0,VALID,100,VALID,0,VALID,19.5982,VALID,166,VALID,0.738459,
2008-05-24, 03:37:00,VALID,914.626,VALID,0,VALID,100,VALID,0,VALID,19.5945,VALID,170,VALID,0.246271,
2008-05-24, 03:38:00,VALID,914.633,VALID,0,VALID,100,VALID,0,VALID,19.5952,VALID,178,VALID,0.834794,
2008-05-24, 03:39:00,VALID,914.649,VALID,0,VALID,100,VALID,-0.0339617,VALID,19.589,VALID,176,VALID,0.883185,
2008-05-24, 03:40:00,VALID,914.643,VALID,0,VALID,100,VALID,-0.0679233,VALID,19.6022,VALID,179,VALID,0.94077,
2008-05-24, 03:41:00,VALID,914.642,VALID,0,VALID,100,VALID,0,VALID,19.6184,VALID,171,VALID,0.95258,
2008-05-24, 03:42:00,VALID,914.623,VALID,0,VALID,100,VALID,-0.0849042,VALID,19.6182,VALID,185,VALID,0.772693,
2008-05-24, 03:43:00,VALID,914.623,VALID,0,VALID,100,VALID,-0.0169808,VALID,19.6374,VALID,183,VALID,0.858445,
2008-05-24, 03:44:00,VALID,914.621,VALID,0,VALID,100,VALID,-0.0339617,VALID,19.6571,VALID,180,VALID,0.928416,